Location: Unspecified
(0.0000°N, 0.0000°E)
Time: 01:32:56
(UTC+00:00)

LilacSat-2 - Pass Details

Date: 11 December 2017
Orbit: 515 x 536 km, 97.5° (Epoch: 25 April)

Event Time Altitude Azimuth Distance (km) Brightness Sun altitude
Rises 18:22:43 0° 196° (SSW) 2,632 ? -6.7°
Reaches altitude 10° 18:25:19 10° 215° (SW) 1,744 ? -7.3°
Maximum altitude 18:27:54 18° 259° (WSW) 1,322 ? -7.9°
Drops below altitude 10° 18:30:30 10° 302° (WNW) 1,745 ? -8.5°
Sets 18:33:07 0° 322° (NW) 2,633 ? -9.1°
